Lanai City, HI

1:43 AM HST on August 19, 2017 (GMT -1000)
Lanai City

Weather History for PHNY - November, 2012

Change the Weather History Date:

Sunday, November 25, 2012

  Actual Average Record
Temperature  
Mean Temperature 74 °F -  
Max Temperature 81 °F 77 °F 82 °F (1996)
Min Temperature 66 °F 62 °F 57 °F (1980)
Cooling Degree Days 8    
Growing Degree Days 24 (Base 50)    
Moisture  
Dew Point 62 °F    
Average Humidity 71    
Maximum Humidity 90    
Minimum Humidity 52    
Precipitation  
Precipitation 0.00 in - - ()
Sea Level Pressure  
Sea Level Pressure 29.97 in    
Wind  
Wind Speed 14 mph (ENE)    
Max Wind Speed 24 mph    
Max Gust Speed -    
Visibility 10 miles    
Events      
Averages and records for this station are not official NWS values.
T = Trace of Precipitation, MM = Missing Value Source: NWS Daily Summary

Daily Weather History Graph

Daily Weather History Graph

Search for Another Location

Airport or City:

Trip Planner

Search our weather history database for the weather conditions in past years. The results will help you decide how hot, cold, wet, or windy it might be!

Date:

Astronomy

Nov. 25, 2012 Rise Set
Actual Time 6:44 AM HST 5:45 PM HST
Civil Twilight 6:20 AM HST 6:09 PM HST
Nautical Twilight 5:53 AM HST 6:36 PM HST
Astronomical Twilight 5:26 AM HST 7:03 PM HST
Moon 3:58 PM HST (11/25) 4:22 AM HST (11/25)
Length of Visible Light 11h 48m
Length of Day
11h 00m
Waxing Gibbous, 94% of the Moon is Illuminated
Nov 25
Waxing Gibbous
Nov 28
Full
Dec 6
Last Quarter
Dec 12
New
Dec 19
First Quarter

Hourly Weather History & Observations

Time (HST) Temp. Heat Index Dew Point Humidity Pressure Visibility Wind Dir Wind Speed Gust Speed Precip Events Conditions
12:56 AM 70.0 °F - 63.0 °F 78% 29.94 in 10.0 mi NE 16.1 mph - N/A   Clear
1:56 AM 68.9 °F - 63.0 °F 81% 29.96 in 10.0 mi ENE 5.8 mph - N/A   Clear
2:56 AM 68.9 °F - 63.0 °F 81% 29.95 in 10.0 mi Variable 4.6 mph - N/A   Clear
3:56 AM 68.0 °F - 63.0 °F 84% 29.94 in 10.0 mi ENE 6.9 mph - N/A   Clear
4:56 AM 66.9 °F - 63.9 °F 90% 29.96 in 10.0 mi NE 11.5 mph - N/A   Clear
5:56 AM 68.0 °F - 63.9 °F 87% 29.97 in 10.0 mi NE 13.8 mph - N/A   Clear
6:56 AM 68.0 °F - 63.9 °F 87% 29.99 in 10.0 mi ENE 10.4 mph - N/A   Clear
7:56 AM 70.9 °F - 63.0 °F 76% 30.00 in 10.0 mi NE 10.4 mph - N/A   Clear
8:56 AM 75.9 °F - 63.9 °F 66% 30.01 in 10.0 mi NE 17.3 mph - N/A   Clear
9:56 AM 79.0 °F - 63.0 °F 58% 30.01 in 10.0 mi NNE 12.7 mph - N/A   Clear
10:56 AM 79.9 °F - 63.0 °F 56% 29.98 in 10.0 mi NE 18.4 mph - N/A   Clear
11:56 AM 81.0 °F 81.9 °F 61.9 °F 52% 29.96 in 10.0 mi NE 17.3 mph - N/A   Clear
12:56 PM 79.9 °F - 61.0 °F 52% 29.93 in 10.0 mi NE 21.9 mph - N/A   Clear
1:56 PM 77.0 °F - 61.9 °F 59% 29.92 in 10.0 mi NE 21.9 mph - N/A   Clear
2:56 PM 79.0 °F - 61.0 °F 54% 29.89 in 10.0 mi NNE 24.2 mph - N/A   Clear
3:56 PM 72.9 °F - 61.9 °F 68% 29.92 in 10.0 mi NNE 21.9 mph - N/A   Clear
4:56 PM 72.9 °F - 61.0 °F 66% 29.93 in 10.0 mi NE 19.6 mph - N/A   Clear
5:56 PM 70.0 °F - 63.0 °F 78% 29.95 in 10.0 mi NE 21.9 mph - N/A   Clear
6:56 PM 68.9 °F - 61.9 °F 78% 29.97 in 10.0 mi NNE 24.2 mph - N/A   Partly Cloudy
7:56 PM 69.8 °F - 60.8 °F 73% 30.04 in 10.0 mi NE 13.8 mph - N/A   Partly Cloudy
8:56 PM 68.9 °F - 59.9 °F 73% 29.99 in 10.0 mi East 12.7 mph - N/A   Partly Cloudy
9:23 PM 69.8 °F - 60.8 °F 73% 30.04 in 10.0 mi SSE 13.8 mph - N/A   Mostly Cloudy
9:56 PM 70.0 °F - 61.0 °F 73% 29.99 in 10.0 mi SE 15.0 mph - N/A   Mostly Cloudy
10:11 PM 69.8 °F - 60.8 °F 73% 30.05 in 10.0 mi East 10.4 mph - N/A   Scattered Clouds
10:56 PM 70.0 °F - 59.0 °F 68% 29.99 in 10.0 mi ENE 12.7 mph - N/A   Clear
11:56 PM 68.9 °F - 59.0 °F 71% 29.96 in 10.0 mi NE 19.6 mph - N/A   Clear